• In Belarus
  • List of Countries
  • For 7 days
  • Water Temperature
  • Satellite Maps
  • Weather Map
  • Weather Widgets
  • user-avatar
    Login

    Hourly Weather Shaki

    Today, 22 November, Wednesday

    Time Temperature Precipitation Wind Pressure Humidity
    00:00 +14°C° 0 mm 2 mps 724 mmHg 41%
    01:00 +14°C° 0 mm 2 mps 724 mmHg 41%
    02:00 +12°C° 0 mm 3 mps 724 mmHg 41%
    03:00 +12°C° 0 mm 3 mps 724 mmHg 40%
    04:00 +12°C° 0 mm 4 mps 724 mmHg 42%
    05:00 +12°C° 0 mm 4 mps 724 mmHg 44%
    06:00 +12°C° 0 mm 5 mps 725 mmHg 46%
    07:00 +12°C° 0 mm 5 mps 725 mmHg 45%
    08:00 +13°C° 0 mm 6 mps 726 mmHg 44%
    09:00 +14°C° 0 mm 6 mps 726 mmHg 43%
    10:00 +14°C° 0 mm 6 mps 726 mmHg 44%
    11:00 +14°C° 0 mm 6 mps 727 mmHg 46%
    12:00 +14°C° 0 mm 6 mps 727 mmHg 47%
    13:00 +13°C° 0.2 mm 6 mps 728 mmHg 49%
    14:00 +13°C° 0.2 mm 5 mps 728 mmHg 51%
    15:00 +13°C° 0.2 mm 5 mps 728 mmHg 52%
    16:00 +12°C° 0.4 mm 5 mps 729 mmHg 56%
    17:00 +10°C° 0.4 mm 5 mps 730 mmHg 59%
    18:00 +10°C° 0.4 mm 4 mps 730 mmHg 63%
    19:00 +8°C° 0.5 mm 4 mps 731 mmHg 65%
    20:00 +8°C° 0.5 mm 4 mps 731 mmHg 67%
    21:00 +8°C° 0.5 mm 3 mps 732 mmHg 69%
    22:00 +8°C° 0.6 mm 3 mps 732 mmHg 70%
    23:00 +8°C° 0.6 mm 3 mps 732 mmHg 70%

    Tomorrow, 23 November, Thursday

    Time Temperature Precipitation Wind Pressure Humidity
    00:00 +7°C° 0.6 mm 2 mps 732 mmHg 71%
    01:00 +7°C° 0.4 mm 2 mps 733 mmHg 71%
    02:00 +7°C° 0.4 mm 2 mps 733 mmHg 71%
    03:00 +8°C° 0.4 mm 1 mps 733 mmHg 72%
    04:00 +7°C° 0.2 mm 1 mps 733 mmHg 71%
    05:00 +7°C° 0.2 mm 1 mps 733 mmHg 71%
    06:00 +7°C° 0.2 mm 1 mps 734 mmHg 70%
    07:00 +7°C° 0.2 mm 1 mps 734 mmHg 67%
    08:00 +7°C° 0.2 mm 1 mps 734 mmHg 63%
    09:00 +7°C° 0.2 mm 1 mps 734 mmHg 60%
    10:00 +7°C° 0.1 mm 1 mps 734 mmHg 56%
    11:00 +8°C° 0.1 mm 1 mps 734 mmHg 52%
    12:00 +8°C° 0.1 mm 1 mps 734 mmHg 48%
    13:00 +8°C° 0 mm 1 mps 734 mmHg 46%
    14:00 +7°C° 0 mm 2 mps 734 mmHg 44%
    15:00 +7°C° 0 mm 2 mps 734 mmHg 42%
    16:00 +6°C° 0 mm 2 mps 734 mmHg 42%
    17:00 +5°C° 0 mm 2 mps 735 mmHg 41%
    18:00 +4°C° 0 mm 2 mps 735 mmHg 41%
    19:00 +4°C° 0 mm 2 mps 736 mmHg 42%
    20:00 +3°C° 0 mm 2 mps 736 mmHg 42%
    21:00 +3°C° 0 mm 2 mps 736 mmHg 43%
    22:00 +2°C° 0 mm 3 mps 737 mmHg 45%
    23:00 +2°C° 0 mm 3 mps 737 mmHg 46%

    Day after tomorrow, 24 November, Friday

    Time Temperature Precipitation Wind Pressure Humidity
    00:00 +1°C° 0 mm 3 mps 737 mmHg 48%
    01:00 +1°C° 0 mm 3 mps 737 mmHg 47%
    02:00 +1°C° 0 mm 3 mps 737 mmHg 47%
    03:00 +1°C° 0 mm 3 mps 738 mmHg 46%
    04:00 +1°C° 0 mm 3 mps 738 mmHg 44%
    05:00 +1°C° 0 mm 3 mps 738 mmHg 41%
    06:00 +1°C° 0 mm 3 mps 738 mmHg 38%
    07:00 +2°C° 0 mm 3 mps 738 mmHg 36%
    08:00 +3°C° 0 mm 3 mps 739 mmHg 34%
    09:00 +4°C° 0 mm 3 mps 739 mmHg 32%
    10:00 +4°C° 0 mm 3 mps 739 mmHg 32%
    11:00 +5°C° 0 mm 4 mps 739 mmHg 32%
    12:00 +5°C° 0 mm 4 mps 738 mmHg 32%
    13:00 +5°C° 0 mm 3 mps 738 mmHg 32%
    14:00 +5°C° 0.1 mm 3 mps 738 mmHg 33%
    15:00 +5°C° 0.1 mm 3 mps 738 mmHg 33%
    16:00 +4°C° 0 mm 3 mps 739 mmHg 36%
    17:00 +3°C° 0 mm 3 mps 739 mmHg 38%
    18:00 +3°C° 0 mm 3 mps 739 mmHg 40%
    19:00 +2°C° 0 mm 3 mps 740 mmHg 41%
    20:00 +2°C° 0 mm 3 mps 740 mmHg 41%
    21:00 +2°C° 0 mm 3 mps 740 mmHg 42%
    22:00 +2°C° 0 mm 3 mps 740 mmHg 43%
    23:00 +2°C° 0 mm 3 mps 740 mmHg 43%

    25 November, Saturday

    Time Temperature Precipitation Wind Pressure Humidity
    00:00 +1°C° 0 mm 3 mps 740 mmHg 44%
    01:00 +1°C° 0.1 mm 3 mps 741 mmHg 46%
    02:00 0°C° 0.1 mm 4 mps 741 mmHg 48%
    03:00 0°C° 0.1 mm 4 mps 741 mmHg 50%
    04:00 0°C° 0.2 mm 4 mps 741 mmHg 51%
    05:00 0°C° 0.2 mm 4 mps 742 mmHg 53%
    06:00 0°C° 0.2 mm 4 mps 742 mmHg 55%
    07:00 +1°C° 0.1 mm 4 mps 743 mmHg 53%
    08:00 +2°C° 0.1 mm 5 mps 743 mmHg 51%
    09:00 +2°C° 0.1 mm 5 mps 744 mmHg 49%
    10:00 +3°C° 0.1 mm 5 mps 744 mmHg 46%
    11:00 +5°C° 0.1 mm 4 mps 744 mmHg 43%
    12:00 +5°C° 0.1 mm 4 mps 744 mmHg 40%
    13:00 +5°C° 0 mm 4 mps 744 mmHg 40%
    14:00 +5°C° 0 mm 3 mps 744 mmHg 40%
    15:00 +5°C° 0 mm 3 mps 744 mmHg 39%
    16:00 +5°C° 0 mm 2 mps 745 mmHg 41%
    17:00 +4°C° 0 mm 2 mps 745 mmHg 43%
    18:00 +3°C° 0 mm 2 mps 746 mmHg 44%
    19:00 +2°C° 0 mm 2 mps 746 mmHg 44%
    20:00 +1°C° 0 mm 2 mps 746 mmHg 43%
    21:00 +1°C° 0 mm 2 mps 747 mmHg 43%
    22:00 +1°C° 0 mm 2 mps 747 mmHg 41%
    23:00 -1°C° 0 mm 2 mps 747 mmHg 39%

    26 November, Sunday

    Time Temperature Precipitation Wind Pressure Humidity
    00:00 -1°C° 0 mm 2 mps 747 mmHg 37%
    01:00 -1°C° 0 mm 2 mps 747 mmHg 37%
    02:00 -2°C° 0 mm 2 mps 747 mmHg 36%
    03:00 -2°C° 0 mm 2 mps 747 mmHg 36%
    04:00 -2°C° 0 mm 2 mps 747 mmHg 36%
    05:00 -2°C° 0 mm 2 mps 747 mmHg 36%
    06:00 -2°C° 0 mm 2 mps 747 mmHg 37%
    07:00 +1°C° 0 mm 1 mps 747 mmHg 35%
    08:00 +3°C° 0 mm 1 mps 747 mmHg 34%
    09:00 +4°C° 0 mm 1 mps 747 mmHg 32%
    10:00 +5°C° 0 mm 1 mps 746 mmHg 32%
    11:00 +6°C° 0 mm 1 mps 745 mmHg 32%
    12:00 +7°C° 0 mm 1 mps 745 mmHg 31%
    13:00 +7°C° 0 mm 1 mps 745 mmHg 33%
    14:00 +6°C° 0 mm 1 mps 744 mmHg 34%
    15:00 +6°C° 0 mm 1 mps 744 mmHg 35%
    16:00 +5°C° 0 mm 1 mps 744 mmHg 36%
    17:00 +4°C° 0 mm 1 mps 745 mmHg 38%
    18:00 +3°C° 0 mm 1 mps 745 mmHg 39%
    19:00 +2°C° 0 mm 1 mps 745 mmHg 39%
    20:00 +2°C° 0 mm 1 mps 745 mmHg 38%
    21:00 +2°C° 0 mm 1 mps 745 mmHg 38%
    22:00 +2°C° 0 mm 1 mps 744 mmHg 37%
    23:00 +2°C° 0 mm 1 mps 744 mmHg 37%

    27 November, Monday

    Time Temperature Precipitation Wind Pressure Humidity
    00:00 +2°C° 0 mm 1 mps 744 mmHg 37%
    01:00 +1°C° 0 mm 2 mps 744 mmHg 37%
    02:00 +1°C° 0 mm 2 mps 743 mmHg 36%
    03:00 +1°C° 0 mm 2 mps 743 mmHg 36%
    04:00 +1°C° 0 mm 2 mps 743 mmHg 36%
    05:00 +1°C° 0 mm 2 mps 743 mmHg 35%
    06:00 +1°C° 0 mm 2 mps 743 mmHg 35%
    07:00 +2°C° 0 mm 2 mps 743 mmHg 35%
    08:00 +5°C° 0 mm 1 mps 743 mmHg 34%
    09:00 +6°C° 0 mm 1 mps 743 mmHg 34%
    10:00 +7°C° 0 mm 1 mps 742 mmHg 33%
    11:00 +8°C° 0 mm 1 mps 742 mmHg 32%
    12:00 +8°C° 0 mm 2 mps 742 mmHg 31%
    13:00 +9°C° 0 mm 1 mps 741 mmHg 32%
    14:00 +9°C° 0 mm 1 mps 741 mmHg 33%
    15:00 +9°C° 0 mm 1 mps 741 mmHg 34%
    16:00 +8°C° 0 mm 1 mps 742 mmHg 35%
    17:00 +6°C° 0 mm 1 mps 742 mmHg 37%
    18:00 +5°C° 0 mm 1 mps 742 mmHg 38%
    19:00 +4°C° 0 mm 1 mps 742 mmHg 38%
    20:00 +4°C° 0 mm 1 mps 742 mmHg 38%
    21:00 +3°C° 0 mm 2 mps 742 mmHg 37%
    22:00 +4°C° 0 mm 1 mps 742 mmHg 37%
    23:00 +4°C° 0 mm 1 mps 742 mmHg 37%
    Show more